If you wish to contribute or participate in the discussions about articles you are invited to join SKYbrary as a registered user

 Actions

Le Puy-Loudes Airport

From SKYbrary Wiki

LFHP
Airport
ICAO: LFHP – IATA: LPY
Summary
Name Le Puy-Loudes Airport
Region Europe
Territory France FR.gif
Location , Auvergne
Serving Le Puy
Elevation 832.409 m
2,731 ft
2,731 ft832.409 m
Type medium airport
Coordinates 45° 4' 50.48" N, 3° 45' 46.40" E
Runways
Designator Length Width Surface ROPS
15/33 1445 m4,740.814 ft
30 m98.425 ft
ASP /
15R/33L 767 m2,516.404 ft
58 m190.289 ft
GRS /


METAR
Observation LFHP 191330Z AUTO 35004KT 310V010 9999 OVC015 16/14 Q1021
Station Le Puy
Date/Time 19 August 2019 13:30:00
Wind direction 350°
Wind speed 04 kts
Lowest cloud amount overcast
Temperature 16°C
Dew point 14°C
Humidity 87%
QNH 1021 hPa
Weather condition n/a